Location: ???????????
(54.6970°N, 39.1477°E)
Time: 02:37:26
(UTC+00:00)

USA 229 DEB - Pass Details

Date: 19 May 2025
Orbit: 872 x 1339 km, 63.4° (Epoch: 14 June)

Event Time Altitude Azimuth Distance (km) Brightness Sun altitude
Exits shadow 23:20:44 - 255° (WSW) 3,482 6.0 -11.0°
Reaches altitude 10° 23:22:52 10° 260° (W) 2,722 5.5 -10.8°
Maximum altitude 23:29:08 53° 337° (NNW) 1,275 4.4 -10.4°
Drops below altitude 10° 23:36:12 10° 54° (NE) 3,054 7.3 -9.8°
Sets 23:39:10 0° 59° (ENE) 4,088 8.0 -9.6°
